Regional Weather Roundup
Issued by NWS Glasgow, MT

Home | Current Version | Previous Version | Text Only | Print | Product List | Glossary On
Versions: 1 2 3 4 5 6 7 8 9 10 11 12 13 14 15 16 17 18 19 20 21 22 23 24 25 26 27 28 29 30 31 32 33 34 35 36 37 38 39 40 41 42 43 44 45 46 47 48 49 50
000
ASUS45 KGGW 042215
RWRGGW
HOURLY REGIONAL WEATHER ROUNDUP FOR NORTHEAST MONTANA
NATIONAL WEATHER SERVICE GLASGOW MONTANA
400 PM MDT WED MAY 04 2016

NOTE: "FAIR" INDICATES FEW OR NO CLOUDS BELOW 12,000 FEET WITH NO
SIGNIFICANT WEATHER AND/OR OBSTRUCTIONS TO VISISBILITY.

NORTHEAST MONTANA


CITY           SKY/WX    TMP DP  RH WIND       PRES   REMARKS
GLASGOW        SUNNY     85  39  19 S13       29.86F
PLENTYWOOD       N/A     83  30  14 SW14G22     N/A
WOLF POINT     SUNNY     86  41  20 SW12      29.87F
JORDAN           N/A     83  41  22 S10       29.89F
WINNETT          N/A     86  28  12 S5G18       N/A
SIDNEY         SUNNY     84  37  18 S15       29.91F
GLENDIVE       SUNNY     82  39  21 SW13      29.95F
MALTA            N/A     88  36  15 S5          N/A
SCOBEY           N/A     84  37  18 SW10G20   29.89F
OPHEIM           N/A     79  34  19 CALM      29.67F

FORT PECK REPORTS


CITY           SKY/WX    TMP DP  RH WIND       PRES   REMARKS
FORT PECK        N/A     84  41  21 S8          N/A
THE PINES        N/A     86  34  15 SW8         N/A

SOUTHEAST MONTANA


CITY           SKY/WX    TMP DP  RH WIND       PRES   REMARKS
BILLINGS       MOSUNNY   81  24  12 SW7       29.96F
MILES CITY     SUNNY     84  35  17 S9G18     29.92F
BAKER          SUNNY     80  35  19 S16       29.99F
LIVINGSTON     SUNNY     80  27  14 S16G28    29.98F

CENTRAL MONTANA


CITY           SKY/WX    TMP DP  RH WIND       PRES   REMARKS
HAVRE          SUNNY     84  38  19 SW16      29.85F
LEWISTOWN      CLOUDY    80  30  16 SW20G25   29.95F
GREAT FALLS    SUNNY     80  30  16 W18G26    29.91F
CUT BANK         N/A     78  34  20 W14G21    29.90F
HELENA         MOSUNNY   83  32  16 VRB6      29.90F
BUTTE          CLOUDY    71  23  16 SE8G18    30.03F
BOZEMAN        SUNNY     78  26  14 SW12      29.98F

WESTERN MONTANA


CITY           SKY/WX    TMP DP  RH WIND       PRES   REMARKS
MISSOULA       MOSUNNY   77  36  22 CALM      29.93F
KALISPELL      NOT AVBL

NORTH DAKOTA


CITY           SKY/WX    TMP DP  RH WIND       PRES   REMARKS
WILLISTON      MOSUNNY   85  37  18 S16G25    29.91F
DICKINSON      SUNNY     79  36  21 SW9       29.96F
MINOT          SUNNY     88  37  16 S13       29.91F
BISMARCK       SUNNY     79  41  25 SW5       29.99F

SOUTHERN SASKATCHEWAN


CITY           SKY/WX    TMP DP  RH WIND       PRES   REMARKS
REGINA         MOSUNNY   88  34  14 SW14G21   29.80F
MOOSE JAW      MOSUNNY   88  39  18 SW10G22   29.80F
ESTEVAN        PTSUNNY   86  37  17 SW17G26   29.88F
SWIFT CURRENT  SUNNY     84  30  14 SW9G22    29.84F




USA.gov is the U.S. government's official web portal to all federal, state and local government web resources and services.